Location: Highridge
(54.0333°N, 114.1333°W)
Time: 06:46:45
(UTC+00:00)

SO-50 - Pass Details

Date: 14 December 2023
Orbit: 608 x 660 km, 64.6° (Epoch: 02 March)

Event Time Altitude Azimuth Distance (km) Brightness Sun altitude
Exits shadow 13:06:47 22° 355° (N) 1,406 ? -22.1°
Maximum altitude 13:07:15 22° 3° (N) 1,392 ? -22.0°
Drops below altitude 10° 13:10:50 10° 55° (NE) 2,016 ? -21.5°
Sets 13:13:33 0° 71° (ENE) 2,913 ? -21.1°
